Wind_Speed
16 16 18 19 20 20 20 21 21 22 21 21 20 20 21 21 21 22 21 21 20 20 18 17 16 15 15 14 14 13 12 11 10 9 8 7 6 5 6 7 8 9 10 11 11 11 11 12 13 13 12 12 11 9 8 6 6 9 12 16 18 19 17 15 15 14 13 12 10 9 7 6 5 5 4 4 5 7 9 10 11 11 11 12 12
16 17 18 20 20 19 20 21 22 22 22 22 21 21 22 22 21 21 21 20 19 19 17 16 15 15 15 14 14 12 11 10 9 8 7 7 6 7 7 8 9 10 10 11 10 10 11 12 12 12 12 12 11 9 9 7 7 11 13 16 19 19 17 15 15 14 14 12 11 9 7 6 5 4 4 3 5 7 9 10 11 11 12 12 12
17 18 20 20 20 20 21 22 22 23 23 22 22 22 21 21 21 21 20 19 19 18 17 16 15 15 15 14 13 12 10 9 8 8 7 7 7 8 9 9 10 11 11 11 10 10 10 11 12 12 12 12 11 10 9 7 8 12 14 17 19 19 17 16 15 14 14 12 11 9 7 6 5 4 4 3 4 6 8 10 11 11 11 11 11
18 19 20 21 20 21 22 23 24 24 23 23 22 22 21 21 21 20 20 19 18 18 17 16 15 14 14 13 12 10 9 8 8 8 8 8 9 9 10 11 12 12 12 12 11 10 10 11 12 12 12 13 12 10 10 8 8 12 15 17 19 19 18 16 15 14 13 12 10 9 7 6 4 4 4 4 4 6 8 9 10 11 11 11 11
18 20 20 21 21 22 23 25 25 24 24 23 22 22 21 21 21 20 19 19 18 18 17 15 14 13 12 11 10 9 8 8 8 9 9 9 11 12 12 13 13 13 13 13 12 11 10 11 11 12 12 13 12 11 10 8 9 13 15 18 19 19 18 17 15 15 14 12 11 9 8 6 4 4 3 4 5 6 7 8 9 10 11 11 11
20 21 21 22 23 23 24 25 25 25 24 24 23 23 22 22 21 20 19 18 17 17 16 14 13 13 12 11 10 10 9 9 9 9 10 10 11 13 14 15 14 14 14 14 13 11 11 11 11 12 13 13 12 12 11 9 9 13 15 18 19 19 18 17 16 16 15 13 11 9 8 7 5 4 4 4 5 6 6 8 9 9 10 10 11
21 22 23 24 24 25 25 25 25 25 25 24 24 23 23 23 22 20 18 17 17 16 15 14 13 12 12 11 11 11 11 11 10 10 10 9 11 13 15 16 16 15 15 15 14 12 11 11 11 12 13 13 13 12 11 10 10 13 16 18 19 19 18 17 17 17 15 14 12 10 8 7 5 4 4 4 5 5 6 7 8 8 9 10 10
24 24 25 26 26 26 26 26 26 26 25 25 25 24 24 24 22 20 19 17 16 15 14 13 12 11 10 11 11 12 13 13 13 12 10 10 11 14 15 16 17 16 16 16 15 13 12 11 12 13 13 14 13 13 12 10 10 12 16 18 20 20 19 18 18 17 16 15 14 11 9 7 6 5 4 4 5 5 5 6 7 7 8 9 10
25 26 27 27 27 27 27 27 26 26 26 25 25 25 24 24 22 20 19 17 16 15 13 11 10 9 9 9 11 12 13 14 15 14 12 12 12 14 14 16 17 17 16 16 16 14 12 12 13 13 14 15 14 13 12 11 10 12 16 19 21 21 20 19 19 18 17 16 15 13 11 9 7 6 5 4 5 5 5 5 6 6 7 8 9
27 27 28 28 28 27 28 28 27 27 26 26 26 25 25 23 21 20 18 17 16 14 12 10 9 9 9 9 11 12 13 14 15 15 15 15 15 15 14 15 17 17 17 17 17 15 13 12 13 14 15 15 15 14 12 11 11 11 15 19 21 22 21 20 20 19 18 17 16 14 13 11 9 8 7 6 5 5 5 5 5 6 6 6 7
28 29 29 29 28 28 28 28 28 27 27 27 27 26 24 22 21 19 17 17 16 14 12 10 10 9 9 9 11 12 13 13 14 15 16 17 16 16 16 15 16 18 18 18 17 16 14 13 14 15 16 16 16 15 13 11 11 11 14 18 21 22 22 22 21 19 19 18 17 15 14 12 11 9 8 7 6 5 5 5 4 5 5 6 6
28 29 29 29 28 29 29 28 28 28 28 28 27 26 23 21 20 18 17 16 15 13 11 10 10 10 10 10 11 12 13 14 14 14 16 18 17 17 17 17 17 18 19 19 18 17 15 14 15 16 17 17 17 15 13 12 11 11 13 17 20 22 23 23 22 20 20 19 18 17 15 13 12 11 9 8 7 6 5 5 4 4 4 5 5
28 28 28 28 29 29 29 28 28 28 28 28 28 25 23 22 22 19 17 16 14 12 11 11 11 11 12 12 12 13 13 14 14 14 15 18 18 18 18 17 17 17 19 20 19 17 16 15 16 17 17 18 18 16 14 12 11 11 12 16 20 22 23 23 22 21 21 20 19 18 16 14 13 12 11 10 8 7 6 5 5 4 4 4 4
27 27 28 28 28 28 28 28 28 29 29 28 27 24 22 23 22 20 18 16 14 13 11 11 12 12 13 14 14 15 14 14 15 15 15 16 17 18 18 17 17 17 18 20 20 18 17 16 17 17 18 19 19 17 15 13 11 11 12 15 19 22 23 24 23 22 21 21 20 18 17 15 13 13 12 11 10 9 7 6 5 5 4 4 4
26 26 27 27 27 28 28 28 29 29 29 29 26 22 21 21 21 20 18 15 13 12 12 12 13 14 15 15 16 17 16 15 15 16 16 16 17 17 17 17 17 17 19 21 20 18 17 17 18 18 18 19 20 18 16 14 11 10 11 13 17 21 23 25 24 23 22 22 21 19 18 16 15 14 13 12 11 10 9 7 6 5 5 4 4
26 26 25 26 27 27 27 28 29 29 30 28 23 20 20 20 19 18 17 15 13 12 12 13 14 15 16 17 18 19 19 17 16 16 17 17 17 17 17 17 16 17 19 20 20 19 18 18 19 19 19 20 20 19 16 14 11 10 11 12 15 19 23 25 25 24 23 23 22 21 19 18 16 15 14 13 12 11 10 9 7 6 5 4 4
25 25 24 25 26 27 28 29 29 30 29 24 21 20 19 19 18 16 15 14 13 12 13 14 15 16 16 18 19 20 20 18 16 16 17 17 17 17 17 17 17 18 18 20 21 19 19 19 19 19 20 21 21 19 17 15 12 10 10 11 14 18 21 24 25 25 24 23 23 22 20 19 18 16 15 14 13 12 11 10 9 7 6 5 4
23 23 24 25 26 27 28 29 30 29 25 21 19 19 18 17 16 14 14 13 13 14 14 15 17 16 16 18 20 20 19 18 17 16 16 17 17 18 18 17 16 18 19 20 21 20 20 20 20 20 20 22 22 20 18 16 13 11 10 11 13 16 20 23 25 25 25 24 23 23 22 20 19 18 16 15 14 13 11 10 9 8 7 6 5
22 23 25 25 26 27 28 29 29 26 22 20 19 18 17 16 14 13 13 14 14 15 15 16 17 16 17 19 19 19 19 18 17 16 16 17 18 18 18 17 15 17 19 20 21 21 20 20 20 20 21 23 23 21 19 17 14 12 11 10 12 14 18 22 24 26 26 25 24 23 22 20 19 18 17 16 15 14 13 12 10 9 8 7 6
23 24 25 26 27 28 29 29 26 22 20 19 18 17 16 14 13 13 13 14 15 16 17 17 18 17 17 19 19 19 20 18 17 16 16 17 17 18 19 18 16 17 20 21 21 21 21 21 20 20 22 24 24 22 20 18 16 14 12 11 12 14 17 21 23 25 26 26 24 23 22 21 20 19 18 17 17 16 15 13 12 10 9 8 7
24 25 25 26 27 28 28 26 22 20 19 18 16 15 14 14 14 13 14 14 15 16 17 18 18 17 18 19 19 20 20 19 17 16 16 17 17 18 19 19 17 17 20 22 22 21 21 21 21 21 22 25 25 23 21 19 18 16 14 12 12 13 16 19 22 24 26 26 25 24 22 21 20 19 18 18 18 17 17 15 13 12 10 9 8
24 24 25 26 27 27 25 22 20 19 18 17 16 14 14 14 14 14 14 14 15 16 17 18 18 18 18 19 19 19 19 19 17 16 17 18 18 18 19 20 19 18 19 22 23 23 22 22 22 21 22 25 26 24 22 21 19 18 16 14 13 14 16 18 21 23 25 26 25 24 23 22 21 20 19 19 18 18 18 17 15 14 13 11 9
24 25 25 26 26 24 21 20 19 18 17 16 15 14 14 13 13 14 14 15 15 16 17 18 19 19 18 17 18 18 18 18 17 17 17 18 19 19 20 20 20 19 19 22 25 25 24 23 22 21 22 25 27 25 23 21 20 20 18 16 15 15 15 17 20 22 23 25 26 25 25 24 22 21 20 20 19 18 18 18 18 17 15 14 11
25 25 26 25 24 22 20 19 18 17 16 15 15 14 13 13 13 14 14 15 15 15 16 18 19 19 18 16 16 17 17 17 17 17 16 17 18 19 20 21 21 20 20 23 25 26 27 24 22 21 22 25 28 26 24 22 21 21 19 17 17 16 16 18 19 21 23 24 25 26 26 26 25 23 22 21 20 19 18 18 19 19 18 16 14
25 26 26 24 22 21 20 18 16 15 15 15 15 14 13 13 13 13 14 14 14 15 16 17 19 19 18 16 15 16 15 15 16 16 14 15 17 18 19 20 21 21 21 23 24 26 27 25 23 21 21 25 28 28 25 23 22 22 21 19 18 17 17 18 19 21 22 24 25 26 27 27 26 25 24 23 22 21 20 19 19 20 19 17 15
25 25 24 23 21 20 19 17 15 15 16 16 15 14 14 14 14 14 14 15 15 15 16 17 18 19 18 16 15 14 13 13 14 14 14 15 15 17 18 19 20 21 22 23 24 26 26 26 25 23 21 23 27 29 27 25 24 23 22 20 19 18 17 18 19 20 21 23 24 25 25 26 26 26 25 25 24 23 21 20 19 19 20 19 17
23 24 23 22 20 19 19 17 16 16 16 16 15 15 15 15 15 15 15 15 15 15 16 16 18 20 19 16 15 14 13 13 13 14 15 15 15 16 17 18 19 21 22 23 24 25 25 26 25 24 23 23 26 29 29 27 25 24 24 22 20 20 18 18 19 20 21 22 23 23 23 24 24 24 25 25 25 24 23 21 20 19 19 19 18
21 22 22 21 19 19 19 18 17 17 17 16 16 15 15 16 16 16 17 17 16 16 16 17 18 20 20 18 16 15 14 14 14 14 14 14 14 15 15 16 18 19 21 23 24 24 24 26 25 25 24 24 25 28 30 29 27 26 26 24 22 21 20 19 19 20 21 22 22 22 23 23 23 23 23 24 24 24 23 22 20 19 19 19 19
20 21 21 20 19 18 19 19 18 17 17 17 16 16 17 17 18 18 18 18 18 18 18 19 19 20 21 20 18 17 16 16 15 14 14 14 14 14 14 16 17 18 20 22 24 24 24 25 26 26 26 25 25 27 30 31 29 28 27 26 24 22 21 20 20 21 22 22 22 23 23 23 23 23 23 24 24 24 24 23 22 21 20 20 19
19 20 20 18 18 18 18 18 18 18 17 17 17 17 18 18 19 19 19 19 19 20 20 20 21 21 22 21 20 19 18 18 17 16 15 15 14 15 15 16 16 18 19 21 23 24 24 24 25 27 28 27 26 26 29 31 31 29 28 28 26 24 23 22 21 21 22 22 23 23 24 23 23 24 24 24 24 24 24 24 24 23 22 21 20
18 18 18 17 17 18 18 18 18 18 18 18 18 19 19 20 20 20 20 20 20 21 21 22 22 23 22 22 22 21 20 19 19 17 16 15 15 16 16 16 16 17 18 19 21 24 24 24 24 27 30 29 28 28 28 30 32 31 30 29 28 26 25 24 24 23 22 22 23 23 23 23 23 23 24 24 25 25 25 25 25 25 24 23 22
18 17 17 17 17 18 19 19 19 19 19 19 19 20 20 21 21 21 21 20 21 21 22 23 23 23 23 22 22 22 21 21 20 19 17 16 15 16 16 16 16 17 18 19 20 23 24 25 25 26 29 31 30 29 29 29 31 32 33 31 30 29 28 27 26 25 24 23 23 23 23 22 22 23 23 24 24 25 25 25 25 26 25 24 23
19 18 18 18 19 19 19 20 20 20 20 21 21 22 22 22 22 22 21 21 21 22 22 23 23 23 23 22 22 22 23 22 20 19 19 18 16 17 17 17 17 17 18 20 21 22 23 25 27 27 28 31 31 31 30 29 30 31 33 34 33 32 30 29 28 27 26 25 24 24 23 22 22 23 23 23 24 24 25 25 25 26 25 24 23
20 19 19 20 20 20 20 21 21 21 22 22 22 23 23 23 23 22 22 21 21 22 23 23 23 23 22 22 22 22 24 22 20 20 21 21 19 18 19 18 18 19 19 19 19 21 22 24 27 29 29 30 32 33 32 31 30 30 32 34 35 34 32 31 30 29 29 27 26 24 24 23 23 23 23 23 23 23 24 24 24 25 25 24 24
20 20 20 20 21 21 22 22 22 23 23 23 23 23 24 24 23 23 22 22 21 22 22 22 22 22 22 22 22 22 24 23 21 21 21 22 21 20 20 19 19 20 20 19 18 20 21 22 23 27 29 30 32 34 34 34 33 32 32 33 36 36 34 34 33 32 31 29 27 26 25 24 24 23 23 23 23 23 23 23 23 23 24 24 23
20 20 20 20 21 22 23 24 24 24 24 24 24 24 24 24 24 23 22 21 21 21 22 22 22 21 22 22 22 23 23 23 23 22 22 22 23 22 21 20 20 20 20 20 19 20 20 21 21 23 27 29 32 34 36 38 37 35 33 33 35 37 37 36 36 35 33 31 29 28 27 26 25 24 24 24 23 23 23 23 22 22 23 23 23
20 20 20 21 22 22 23 24 25 25 25 25 24 25 24 24 24 23 22 21 21 21 22 22 22 21 22 22 23 23 23 23 23 22 23 23 24 24 22 21 21 21 21 20 21 21 20 21 22 23 24 26 29 32 35 38 39 37 36 35 35 37 39 38 38 37 35 33 32 31 29 28 27 26 25 25 24 24 23 23 22 22 22 23 22
20 20 20 22 23 24 25 25 26 26 26 25 25 25 25 25 24 23 22 22 21 22 22 22 22 22 23 23 23 23 23 23 23 22 24 24 24 24 23 22 22 22 21 20 21 21 20 21 23 25 24 24 27 29 32 36 39 39 39 37 37 38 39 39 39 38 37 36 35 34 32 31 29 28 27 27 26 25 24 23 23 22 22 23 23
21 21 21 22 24 25 26 26 27 26 26 25 25 25 25 25 25 24 23 22 22 22 22 23 23 23 23 24 24 24 23 23 22 22 23 24 24 25 24 23 23 22 22 20 21 22 22 22 22 24 25 25 28 29 29 32 36 39 41 41 40 40 40 40 40 39 39 38 37 36 34 33 31 30 30 29 28 27 26 25 24 23 23 23 23
22 22 22 23 24 26 27 26 26 26 25 24 24 25 25 25 25 25 24 23 22 23 23 24 24 24 24 24 24 24 24 23 22 22 23 24 24 25 25 25 23 22 22 22 22 22 22 22 21 24 26 25 27 30 30 30 31 35 40 43 43 42 41 41 40 40 41 40 39 38 37 35 34 33 32 31 30 29 28 27 26 25 24 24 24
24 24 24 24 25 26 26 26 26 25 25 24 24 25 25 25 25 25 24 24 23 23 24 24 24 24 24 24 25 25 24 23 23 23 23 24 24 24 25 25 24 23 23 23 23 23 23 23 22 24 27 27 25 26 30 31 29 30 34 41 44 45 44 43 41 40 41 41 41 40 39 38 36 35 35 33 32 32 31 30 29 27 27 26 26
26 27 26 26 27 27 26 26 26 25 25 25 25 25 25 25 25 25 25 24 24 24 24 25 25 25 25 25 25 25 25 24 23 23 23 24 25 24 24 25 25 26 25 23 23 24 24 24 23 23 25 26 24 22 25 27 27 29 32 36 42 46 47 46 44 41 41 41 42 42 41 40 39 38 37 36 35 34 34 32 31 30 29 29 28
27 28 28 28 28 28 27 26 26 25 25 25 25 25 25 25 25 25 25 25 25 25 25 26 26 26 26 26 26 26 25 24 24 23 23 24 24 25 24 24 25 27 27 25 24 24 25 24 24 23 22 23 23 21 21 22 23 29 32 33 37 42 46 48 46 43 42 41 41 41 42 42 42 40 39 39 38 37 36 35 34 33 32 31 31
27 29 29 28 28 28 28 27 27 26 25 26 25 25 25 25 25 25 25 26 26 26 26 27 27 27 27 26 26 26 25 24 23 23 23 24 24 24 24 24 24 26 28 28 26 24 25 25 24 23 22 21 22 22 22 21 20 24 27 29 32 35 40 45 45 44 43 41 40 41 42 43 43 42 41 41 40 39 38 37 36 35 34 34 33
28 29 29 28 28 28 27 27 26 25 25 25 25 25 26 26 26 26 26 26 26 26 26 27 28 28 28 27 26 26 26 24 23 23 23 23 24 24 24 24 24 25 27 28 29 28 27 27 26 24 23 23 22 22 23 24 22 22 23 26 28 28 33 39 42 43 43 40 39 40 41 42 43 43 43 43 42 42 41 40 39 38 37 36 36
29 30 29 28 27 26 26 25 24 24 24 24 24 25 27 27 27 26 26 26 26 26 26 27 28 28 28 27 26 26 26 24 23 22 23 23 23 23 23 24 24 25 25 27 29 30 31 30 29 28 26 26 25 24 24 25 25 23 23 24 24 23 25 30 35 39 40 40 39 40 40 41 42 42 43 44 44 44 43 43 41 41 40 39 38
29 29 29 28 26 24 24 23 23 23 23 23 24 26 27 27 27 26 26 26 26 26 27 27 27 27 26 26 25 25 25 24 22 22 22 22 23 23 23 23 24 24 25 25 26 28 30 32 32 31 29 29 29 28 27 26 26 26 24 24 24 22 21 23 28 32 35 37 38 39 40 41 42 42 42 43 44 44 44 44 44 43 43 42 41
27 27 27 26 24 23 22 22 22 21 21 22 24 26 27 27 26 26 26 26 26 26 26 27 27 27 25 24 23 23 24 23 22 21 21 22 22 22 23 23 23 24 24 25 25 25 27 29 31 32 31 31 31 31 30 28 26 26 25 24 24 23 22 23 25 29 32 33 34 36 37 39 41 43 43 42 42 43 43 43 44 44 44 44 44
24 24 24 23 22 21 21 21 21 21 21 22 23 25 26 26 26 26 26 26 26 26 26 26 26 26 24 23 22 22 22 22 22 21 21 21 22 22 23 23 23 24 24 24 24 24 25 26 28 29 30 30 31 32 31 30 28 27 25 25 25 26 26 26 27 29 31 31 32 33 33 34 37 41 43 43 43 43 43 43 44 44 44 44 44
22 21 21 21 20 19 19 20 20 20 20 21 22 24 25 25 25 25 25 26 26 26 26 25 25 24 23 22 22 21 21 21 21 20 20 20 21 22 22 23 23 23 24 24 24 24 24 24 25 26 27 28 29 30 30 30 30 29 27 27 28 28 28 29 30 31 31 31 32 33 33 32 32 35 39 42 43 43 44 44 45 46 46 45 44
20 20 20 20 20 19 18 19 19 19 19 20 21 23 24 24 24 24 24 25 25 25 25 24 23 22 22 22 22 22 21 20 19 19 19 19 20 21 22 22 23 23 23 23 24 24 23 23 24 24 25 26 26 27 28 28 29 30 29 29 29 29 29 30 32 33 33 33 33 33 34 34 32 33 36 38 40 42 42 43 44 46 47 46 45
Wind_Direction
273 276 278 278 280 286 290 291 290 289 287 286 286 286 286 288 291 294 297 300 302 305 306 305 302 301 302 301 298 295 290 285 280 275 270 267 265 260 257 261 270 279 290 295 298 297 290 284 280 279 274 270 271 277 278 268 224 200 198 201 197 191 187 184 181 175 173 174 173 173 175 173 158 141 130 115 104 101 97 92 87 80 75 71 67
268 272 275 276 280 285 287 287 286 285 285 285 285 285 286 289 292 295 298 300 303 306 307 306 303 303 305 303 299 295 289 283 280 280 273 259 251 254 256 257 263 271 281 288 293 294 288 282 278 276 271 267 270 273 274 263 224 202 196 201 200 194 189 185 185 182 179 177 176 175 177 175 161 146 136 121 108 105 100 95 90 83 77 73 68
264 269 272 276 280 283 284 285 284 284 286 286 287 288 289 291 294 297 299 302 304 307 309 307 306 307 308 306 303 298 291 282 280 284 280 263 248 248 251 253 256 262 272 280 286 289 286 280 275 272 267 264 266 271 272 260 225 206 197 200 202 197 190 187 189 190 186 182 181 179 179 176 165 152 141 130 114 106 102 98 93 86 79 75 71
265 269 273 277 280 282 283 284 284 285 287 289 289 290 291 293 295 298 300 303 306 309 309 308 307 308 309 308 305 300 292 284 279 280 280 270 257 250 249 250 251 255 264 273 279 284 283 277 272 267 263 261 262 267 269 260 229 210 201 200 202 200 194 189 191 194 192 188 188 186 183 181 169 155 148 139 121 109 103 99 94 88 82 79 75
268 271 274 277 279 281 282 282 284 286 288 290 290 290 291 293 295 298 301 304 307 309 308 308 307 308 310 309 303 294 288 282 276 273 271 267 261 255 250 249 251 253 258 266 273 277 277 273 269 263 259 257 258 263 266 261 233 214 207 202 202 202 197 191 192 197 195 191 191 193 189 186 173 158 157 145 128 113 105 102 96 91 85 82 78
271 273 274 275 277 278 279 281 284 286 288 289 290 290 291 292 294 297 301 305 306 307 307 307 307 308 309 306 297 284 277 274 274 272 265 261 261 258 251 247 248 251 255 262 268 271 271 269 264 258 255 254 254 259 263 260 238 217 211 206 202 203 200 194 195 199 199 194 191 194 194 188 177 163 163 154 135 120 110 105 100 93 88 85 81
273 274 275 275 275 276 278 280 283 285 288 290 291 291 291 292 294 297 302 306 306 306 306 307 307 308 307 303 294 280 270 268 273 275 267 263 263 260 253 245 244 248 254 260 264 266 267 264 259 253 250 250 251 255 260 261 243 220 213 208 203 203 203 199 199 201 202 198 192 191 195 190 176 164 166 159 140 126 116 110 105 98 91 87 84
276 277 278 277 276 276 277 280 283 285 288 290 290 290 291 292 295 300 305 307 307 306 305 307 307 308 308 304 297 285 273 267 270 271 265 262 263 261 255 245 240 242 251 258 260 260 262 261 256 249 244 245 246 251 257 261 249 225 215 211 204 202 203 203 203 203 204 203 195 190 192 188 175 163 165 164 145 132 125 118 111 103 96 91 88
278 279 280 279 276 277 278 280 283 285 287 288 289 289 290 292 296 302 305 306 305 303 303 304 305 307 310 308 304 296 284 273 267 266 260 255 257 259 256 248 240 238 245 254 257 255 256 258 254 247 240 239 242 246 253 258 254 233 219 213 207 203 203 205 206 204 205 206 200 193 191 188 180 165 163 166 153 141 135 128 120 110 101 95 91
279 281 282 280 278 278 279 280 283 285 287 286 287 288 289 292 294 300 302 303 303 299 300 300 300 302 302 305 307 305 298 284 269 262 258 254 255 258 258 253 245 240 242 250 254 252 251 252 251 245 237 235 237 241 247 255 256 240 223 216 210 205 204 206 208 206 206 207 203 197 194 191 183 169 166 167 160 152 146 142 131 118 109 99 93
280 281 280 278 277 277 278 280 282 283 284 283 285 286 289 290 290 297 300 300 300 296 295 292 291 294 294 298 301 302 301 294 277 261 256 256 258 263 264 259 250 242 240 245 251 250 247 247 247 242 234 231 233 236 242 251 256 247 229 219 212 208 207 208 209 207 208 208 205 199 196 195 186 174 171 168 164 162 160 156 143 126 116 106 96
279 277 276 275 275 275 277 278 280 281 280 280 282 285 288 287 288 296 298 296 297 291 286 283 283 287 289 293 296 297 296 294 286 267 255 255 258 262 262 258 252 242 237 239 245 247 244 244 243 239 232 227 229 232 237 245 253 251 236 224 216 212 210 211 211 209 210 210 207 201 197 197 191 182 176 173 169 168 173 170 154 137 124 112 101
276 274 273 273 274 275 276 277 278 277 276 276 278 284 288 287 291 297 295 294 292 284 277 272 275 283 287 291 294 295 291 288 285 274 257 253 255 257 257 254 250 242 234 234 239 242 241 241 241 238 230 224 226 228 232 240 249 252 243 230 220 215 213 214 214 212 212 213 210 205 199 197 195 189 183 181 177 174 180 180 166 151 138 123 110
274 274 273 273 274 274 275 276 275 273 273 273 277 285 289 289 293 296 295 293 287 278 270 268 273 280 285 290 293 293 290 283 278 273 261 254 254 256 256 252 244 237 231 228 232 236 237 239 240 237 229 222 222 225 228 236 245 250 247 235 224 218 216 216 217 215 214 215 213 209 203 197 196 195 190 187 183 181 184 184 177 164 153 141 122
273 274 273 274 274 274 274 273 271 270 270 271 278 285 287 287 290 292 291 288 281 274 267 268 273 278 284 288 290 291 290 284 275 269 263 258 256 257 259 253 241 231 227 225 228 232 234 236 239 236 227 220 220 223 226 232 241 247 247 238 227 221 218 217 218 218 217 216 215 213 208 201 198 199 196 192 188 187 189 189 186 177 167 157 138
270 272 273 273 273 272 272 270 268 267 267 272 281 283 281 283 286 287 285 282 277 272 268 269 272 276 281 286 288 288 288 284 276 267 264 260 257 258 260 257 243 229 226 227 228 230 231 233 237 235 225 217 218 221 224 229 236 243 247 240 230 223 221 220 219 221 220 219 217 215 212 205 201 201 201 197 191 191 193 193 193 188 182 171 155
267 269 270 270 270 269 267 267 266 265 268 276 281 279 278 280 282 281 279 278 275 272 270 271 272 273 278 282 284 284 285 283 275 266 262 261 259 258 259 259 246 230 226 228 229 228 229 231 235 235 224 214 215 220 223 227 232 238 242 240 233 226 223 222 221 222 223 223 221 218 216 211 206 203 203 201 197 196 197 198 198 196 194 189 176
268 267 266 267 266 266 265 265 264 266 273 278 277 275 276 276 276 276 275 274 273 272 270 269 270 271 275 278 279 281 283 281 273 264 260 259 260 259 256 258 251 235 227 228 228 227 228 230 233 233 223 211 211 218 222 224 228 232 236 237 234 228 224 223 223 223 224 226 224 222 219 216 212 207 204 204 202 202 203 203 204 204 203 202 196
268 266 265 264 264 264 265 264 266 272 277 275 273 273 273 272 272 271 271 271 273 271 266 266 266 268 273 274 275 278 279 277 271 264 259 257 259 259 253 252 253 241 232 229 227 225 226 229 230 230 222 210 207 214 220 223 225 228 229 231 231 228 224 223 224 224 224 227 227 226 224 221 218 216 211 207 206 206 207 209 210 212 212 212 211
267 266 264 263 264 265 265 267 272 277 276 273 272 270 268 269 268 266 266 269 272 269 266 265 264 267 271 271 274 276 276 274 268 261 257 257 257 258 253 250 250 243 235 232 229 225 223 226 227 226 219 210 206 210 217 221 223 224 224 225 226 226 224 223 223 224 225 228 229 229 229 227 224 222 220 216 212 211 211 212 214 217 219 222 223
268 267 266 265 266 267 269 274 279 278 275 273 271 267 266 265 265 263 263 265 268 270 270 267 265 269 271 272 274 274 275 272 266 260 255 255 256 255 253 252 252 245 236 231 230 228 223 224 225 222 216 210 206 208 215 220 223 223 221 220 222 223 223 222 222 224 226 228 230 232 233 233 230 229 228 225 221 218 217 217 218 221 224 227 230
268 267 266 267 267 270 275 280 280 276 274 271 268 265 264 262 261 260 259 261 265 269 272 271 272 273 274 274 275 275 276 273 269 264 258 254 253 252 251 252 253 249 240 232 230 230 225 221 223 218 212 210 206 205 212 218 224 225 221 218 218 221 222 221 221 223 226 228 230 233 235 237 237 236 236 235 232 227 224 222 222 225 228 231 234
266 266 266 267 269 274 278 279 278 276 272 268 265 263 261 259 258 256 256 258 262 267 272 275 276 275 276 277 277 276 274 274 273 268 261 257 254 252 251 252 252 248 244 239 233 231 225 220 221 217 210 209 206 204 210 216 223 228 226 220 217 218 220 221 221 221 224 228 231 233 236 239 240 241 242 242 242 238 233 228 226 227 230 233 235
264 265 267 269 271 274 275 275 275 272 268 263 260 258 257 257 256 254 255 257 260 265 271 276 278 278 279 280 281 278 274 272 273 271 266 262 259 257 254 253 253 247 242 242 238 232 226 220 219 218 211 208 207 205 208 213 221 229 230 226 221 217 218 221 221 221 223 227 230 233 236 239 241 243 244 245 247 247 243 237 232 230 231 233 236
262 263 266 268 269 270 271 272 270 266 260 256 254 253 253 254 253 252 254 258 262 265 269 274 279 280 281 282 282 281 279 273 272 272 269 265 263 260 258 254 252 246 240 242 242 235 226 219 218 218 214 210 207 205 207 211 218 228 232 230 228 221 217 221 222 222 224 227 230 233 235 239 241 242 243 244 247 249 249 246 241 236 235 235 237
259 261 264 266 266 265 267 268 264 258 253 251 249 248 249 249 250 250 253 257 261 265 268 272 277 277 277 280 281 282 282 277 272 271 267 264 263 262 259 254 250 244 239 239 243 241 228 216 215 216 215 213 210 207 207 210 214 224 231 231 232 229 220 220 223 224 225 227 230 232 235 238 241 243 244 244 245 246 248 250 248 245 241 240 240
255 258 262 263 262 261 262 261 257 252 249 247 247 247 249 250 251 252 254 256 260 264 267 270 273 274 276 278 279 281 280 277 274 272 269 266 266 266 262 256 251 245 240 238 242 245 229 215 215 216 215 214 214 211 209 210 212 220 229 231 232 233 228 222 224 226 227 229 231 233 235 238 241 243 245 245 244 244 245 248 249 249 246 243 241
250 254 259 259 257 256 255 254 250 246 244 244 245 246 248 250 252 253 256 258 261 263 265 267 269 273 276 277 277 278 277 276 276 275 275 276 273 271 267 262 256 248 244 241 243 246 231 216 216 217 216 215 216 216 213 211 212 216 225 229 229 233 234 228 225 227 229 230 232 234 235 237 239 241 243 244 244 243 242 243 245 247 247 245 243
244 248 253 254 252 250 249 248 246 243 241 242 243 245 247 248 249 251 254 257 260 261 262 264 266 269 274 276 277 276 277 278 278 278 280 282 277 270 267 265 259 253 249 245 245 248 239 225 218 217 218 216 218 220 217 214 213 215 222 228 229 230 233 233 229 227 229 231 232 234 235 236 238 239 241 242 242 242 241 239 239 240 243 244 244
243 245 248 249 247 246 246 246 245 242 241 243 245 247 248 249 250 252 253 256 258 260 262 263 264 266 269 273 274 274 275 277 278 279 280 281 279 271 267 264 260 256 254 251 247 248 246 238 227 220 218 217 219 222 221 218 216 216 220 226 228 229 231 234 233 230 229 230 232 234 235 236 237 239 241 242 243 242 241 239 237 236 237 239 241
248 247 247 247 245 245 246 245 244 242 243 246 249 251 253 254 255 256 257 258 258 260 261 262 263 264 266 268 270 271 272 273 275 276 277 278 278 274 269 264 259 255 255 254 250 248 248 245 238 228 222 220 220 222 224 222 219 217 218 223 227 228 230 232 234 233 231 230 232 234 237 237 239 241 243 244 245 245 243 241 239 238 237 237 238
254 250 247 246 246 246 244 242 241 241 244 248 252 255 257 258 259 260 261 261 261 261 261 260 261 262 264 265 268 270 269 267 269 272 274 273 273 272 270 264 260 258 255 253 252 250 247 245 242 236 230 226 223 223 224 224 222 220 219 221 224 227 228 231 233 234 233 233 232 235 238 240 240 242 244 246 247 247 246 245 242 241 239 239 239
256 254 250 246 245 244 242 239 238 239 242 247 251 256 259 260 261 262 262 263 262 262 261 261 260 261 263 264 266 268 266 264 266 270 272 272 269 268 267 263 262 262 258 254 253 252 249 244 239 237 235 231 228 227 226 227 226 224 222 221 222 225 227 229 232 234 235 234 234 235 238 240 241 242 243 245 247 248 248 247 246 244 242 241 240
252 251 250 247 244 242 240 237 236 238 242 247 251 255 258 261 262 264 264 263 262 261 260 260 259 260 262 263 264 266 267 266 267 268 270 273 271 266 263 262 259 257 256 255 255 255 252 246 240 237 235 234 232 231 230 230 229 227 225 224 224 225 226 228 231 233 235 235 235 236 238 240 242 242 242 243 245 247 248 249 248 247 245 243 241
249 248 247 246 243 241 239 237 237 238 242 247 251 255 259 262 264 265 265 264 262 259 257 257 257 258 260 262 264 266 268 270 269 267 268 271 271 267 264 263 260 258 257 257 259 260 256 252 246 240 237 235 235 234 233 232 232 230 228 227 226 226 227 228 230 232 234 235 236 236 238 240 241 242 243 243 245 247 248 248 248 247 246 244 243
252 249 247 246 244 241 239 239 239 240 243 247 251 255 258 262 264 265 266 265 263 259 257 256 256 258 261 263 264 266 268 269 269 268 266 265 266 265 261 262 264 264 260 255 257 263 260 254 248 243 240 239 238 237 234 234 234 232 230 229 227 226 226 228 230 232 233 235 236 237 237 238 240 241 242 243 245 248 248 248 247 245 244 243 243
258 253 250 249 247 244 242 242 243 244 246 248 251 254 257 260 262 263 263 263 263 260 258 257 256 258 261 263 264 265 265 266 267 266 264 262 261 260 259 261 264 264 261 254 254 259 258 253 247 243 242 242 241 241 237 235 235 234 233 231 229 228 227 227 230 232 232 234 235 236 236 237 238 240 241 243 244 246 248 249 248 245 243 241 240
262 259 255 252 250 249 248 247 248 249 250 251 253 255 257 259 260 260 260 261 261 261 260 259 259 259 261 263 263 263 264 264 265 264 262 261 259 258 258 258 260 261 259 255 254 255 254 251 246 243 242 241 239 240 240 236 234 234 234 233 232 230 229 227 228 231 232 234 235 235 236 236 237 239 240 241 243 244 245 247 248 247 245 243 241
264 262 259 256 254 252 251 251 252 252 253 254 255 256 257 257 258 259 259 259 259 260 260 260 261 261 262 263 263 263 263 262 262 263 261 260 258 257 257 254 253 256 257 254 252 252 252 251 248 243 243 242 238 238 242 239 235 233 233 233 233 232 232 229 227 229 231 233 235 236 237 237 237 238 240 241 242 244 245 245 246 247 247 246 245
265 263 261 259 258 256 254 254 254 255 255 256 256 256 256 256 257 258 259 259 258 259 260 260 260 261 262 263 264 264 264 263 261 261 260 259 257 256 256 253 250 252 254 252 249 249 251 252 250 245 244 245 241 239 242 243 241 237 234 233 233 232 232 231 228 227 230 231 233 235 237 238 238 238 239 240 242 244 245 245 245 246 246 246 246
266 264 262 260 259 259 258 258 257 257 257 257 255 255 255 256 257 258 259 260 259 259 260 260 260 261 262 263 264 265 264 263 261 260 259 258 257 256 254 252 249 247 248 249 250 249 249 250 249 246 247 249 247 243 243 245 247 246 240 235 233 232 231 231 229 227 229 231 232 234 235 237 238 239 240 240 240 242 243 244 244 245 246 246 246
266 265 264 262 260 260 261 261 260 260 259 258 256 256 257 257 258 259 260 260 260 260 260 261 262 262 263 263 264 264 264 263 262 260 259 257 256 256 254 251 247 244 243 245 249 250 250 250 249 248 250 253 254 247 241 241 243 247 246 239 234 232 231 232 230 226 227 230 231 233 235 237 238 239 241 241 241 240 242 243 244 244 245 246 246
264 266 265 264 264 264 264 263 262 262 261 260 259 259 259 259 258 258 259 260 260 261 261 262 263 263 263 263 264 264 263 262 261 259 258 257 256 255 255 252 247 244 242 241 245 251 253 251 249 249 250 255 257 250 238 231 228 235 243 242 235 232 230 230 229 226 225 228 231 233 235 237 238 240 241 243 243 243 242 242 243 243 244 246 247
263 265 266 266 267 267 267 266 265 264 264 264 264 263 262 261 259 259 259 260 261 262 263 264 265 265 264 263 263 264 262 260 259 258 257 256 255 255 254 253 248 244 242 240 240 246 249 248 248 249 249 253 259 256 246 238 229 228 237 244 243 239 233 229 226 225 224 225 228 232 235 236 238 240 241 243 245 246 246 244 244 244 244 245 247
263 264 265 267 267 267 266 266 266 266 267 268 267 266 264 262 260 260 260 261 261 261 262 264 265 265 265 263 263 263 263 260 257 255 254 254 254 253 253 253 250 246 242 240 239 241 243 243 242 245 246 247 253 256 252 249 242 234 233 239 245 245 240 233 229 227 226 225 227 230 234 236 238 239 241 243 245 247 248 248 247 247 246 246 247
262 263 264 265 266 267 267 267 267 267 268 269 268 266 264 263 262 262 263 263 263 262 262 262 262 263 263 263 262 262 262 260 256 253 251 251 251 252 251 252 251 250 246 242 241 241 243 243 241 241 241 240 243 246 250 251 247 242 237 234 236 238 240 240 236 233 231 230 230 232 234 236 238 239 241 242 244 246 248 250 251 251 250 250 249
260 262 263 264 265 267 267 268 268 268 268 268 267 265 265 265 266 266 266 266 266 265 264 262 261 260 260 261 262 262 262 260 257 252 249 249 249 249 249 250 250 251 250 247 244 242 243 245 244 243 242 241 241 242 247 252 250 247 243 237 233 231 233 237 238 237 236 236 236 238 239 239 239 240 241 243 244 245 248 250 252 253 254 254 253
257 258 259 260 262 264 266 268 267 267 266 265 265 265 267 268 269 269 269 269 269 268 266 264 262 260 258 260 262 263 262 261 258 253 249 247 248 248 248 248 248 249 249 249 247 244 242 244 246 246 245 244 244 245 248 252 252 249 246 244 241 238 238 236 235 236 237 238 240 243 245 246 244 242 242 244 245 246 248 250 252 253 254 255 256
250 252 253 255 258 260 264 266 266 265 264 263 264 266 268 269 270 270 270 270 269 268 267 265 263 261 260 261 262 262 262 261 259 255 250 246 246 246 247 247 247 247 248 248 248 246 243 242 244 246 246 246 246 247 249 250 251 251 249 247 246 244 244 243 239 239 238 238 241 245 247 248 247 244 242 243 246 248 250 252 254 254 255 255 255
242 245 248 251 254 257 261 265 265 265 264 264 264 265 267 268 269 270 269 269 268 267 266 264 263 263 264 266 265 264 262 260 259 257 253 249 246 246 246 247 247 248 248 249 249 248 246 244 243 243 245 246 246 247 248 249 250 252 251 251 250 248 246 245 245 244 243 242 242 245 249 248 245 244 243 243 245 248 251 253 254 255 255 255 255
238 243 246 250 253 256 260 263 266 266 264 263 263 264 266 267 268 268 268 268 267 266 264 263 263 263 266 268 269 268 265 262 259 257 254 250 248 247 247 248 248 248 249 250 250 250 250 248 245 244 243 244 245 246 247 247 248 251 252 252 252 251 248 246 246 247 247 246 245 245 249 252 250 247 247 247 247 248 251 253 254 254 254 254 255
Height
5848 5847 5847 5846 5846 5846 5846 5845 5845 5844 5844 5844 5844 5844 5844 5844 5844 5844 5844 5843 5843 5842 5842 5842 5842 5842 5842 5842 5842 5842 5843 5843 5843 5844 5844 5844 5845 5846 5846 5847 5847 5848 5848 5849 5850 5850 5851 5850 5851 5851 5852 5852 5853 5854 5854 5855 5856 5856 5857 5859 5859 5860 5861 5862 5863 5862 5862 5863 5863 5864 5865 5865 5866 5866 5867 5867 5868 5868 5869 5869 5869 5869 5869 5869 5869
5846 5846 5845 5845 5845 5845 5844 5844 5843 5843 5843 5843 5843 5843 5843 5843 5842 5842 5842 5842 5841 5841 5841 5841 5841 5841 5841 5841 5841 5841 5842 5842 5842 5843 5843 5844 5844 5845 5845 5846 5846 5847 5847 5848 5849 5849 5850 5850 5850 5851 5851 5852 5853 5853 5854 5855 5855 5856 5857 5858 5859 5860 5861 5862 5863 5863 5863 5863 5864 5864 5865 5866 5866 5867 5867 5868 5868 5869 5869 5869 5870 5870 5869 5869 5869
5844 5844 5844 5843 5844 5843 5842 5842 5841 5841 5841 5842 5841 5841 5841 5841 5841 5841 5840 5840 5840 5840 5839 5839 5839 5839 5840 5840 5840 5840 5840 5841 5841 5842 5842 5843 5843 5844 5844 5845 5846 5846 5846 5847 5848 5849 5849 5849 5849 5850 5851 5851 5852 5853 5854 5854 5855 5855 5856 5857 5859 5860 5861 5862 5863 5863 5863 5863 5864 5865 5865 5866 5866 5867 5868 5868 5869 5869 5869 5870 5870 5870 5869 5869 5869
5843 5842 5842 5842 5842 5841 5841 5840 5840 5840 5840 5840 5840 5840 5839 5839 5839 5839 5839 5839 5839 5838 5838 5838 5838 5838 5838 5839 5839 5839 5839 5840 5840 5841 5841 5842 5842 5843 5843 5844 5845 5845 5846 5846 5847 5848 5848 5849 5849 5849 5850 5851 5852 5853 5853 5854 5855 5855 5856 5857 5859 5860 5861 5862 5863 5863 5863 5864 5864 5865 5866 5866 5867 5868 5868 5869 5869 5870 5870 5870 5870 5870 5870 5870 5870
5841 5841 5840 5840 5840 5839 5839 5838 5838 5838 5838 5838 5838 5838 5838 5838 5838 5838 5838 5838 5837 5837 5837 5837 5837 5837 5837 5838 5838 5838 5838 5838 5839 5839 5840 5841 5841 5842 5842 5843 5844 5844 5845 5845 5846 5847 5847 5848 5848 5849 5849 5850 5851 5852 5853 5854 5854 5855 5856 5857 5859 5860 5861 5862 5862 5863 5863 5864 5864 5865 5866 5866 5867 5868 5868 5869 5870 5870 5870 5870 5870 5870 5870 5870 5870
5839 5839 5838 5838 5838 5838 5837 5837 5837 5837 5837 5837 5837 5836 5836 5836 5836 5836 5836 5836 5836 5836 5836 5836 5836 5836 5836 5836 5837 5837 5837 5837 5838 5838 5838 5839 5840 5840 5841 5842 5843 5843 5844 5844 5845 5846 5847 5847 5847 5848 5849 5849 5851 5851 5852 5853 5854 5854 5855 5857 5858 5860 5861 5862 5862 5863 5863 5864 5864 5865 5866 5866 5867 5868 5869 5869 5870 5870 5871 5871 5870 5870 5870 5870 5870
5837 5837 5837 5836 5836 5836 5836 5835 5835 5835 5835 5835 5835 5835 5835 5835 5835 5835 5835 5835 5835 5835 5834 5835 5835 5835 5835 5835 5835 5835 5835 5836 5836 5836 5837 5838 5838 5839 5839 5840 5841 5842 5843 5844 5844 5845 5846 5846 5846 5847 5848 5849 5850 5851 5852 5852 5853 5854 5855 5856 5858 5860 5861 5862 5862 5862 5863 5863 5864 5865 5866 5866 5867 5868 5869 5870 5870 5870 5871 5871 5871 5871 5871 5871 5871
5835 5835 5835 5835 5834 5834 5834 5834 5833 5833 5833 5833 5833 5833 5833 5833 5833 5833 5834 5834 5834 5834 5833 5833 5833 5833 5834 5833 5833 5833 5833 5834 5834 5835 5835 5836 5836 5837 5837 5838 5839 5841 5842 5843 5844 5844 5845 5845 5845 5846 5847 5848 5849 5850 5851 5852 5852 5853 5854 5856 5857 5859 5860 5861 5861 5862 5863 5863 5864 5865 5866 5866 5867 5868 5869 5870 5870 5870 5871 5871 5871 5871 5871 5871 5871
5833 5833 5833 5833 5833 5832 5832 5832 5831 5831 5831 5831 5831 5831 5831 5831 5831 5832 5832 5832 5832 5832 5832 5832 5832 5832 5832 5832 5832 5831 5831 5832 5832 5832 5833 5834 5834 5835 5836 5836 5837 5839 5840 5841 5842 5843 5844 5844 5844 5845 5846 5847 5848 5849 5850 5851 5852 5853 5853 5855 5857 5858 5860 5860 5861 5861 5862 5863 5864 5865 5866 5866 5867 5868 5869 5870 5870 5871 5871 5871 5871 5872 5872 5872 5872
5831 5831 5831 5831 5830 5830 5830 5830 5830 5830 5830 5829 5829 5829 5829 5829 5830 5830 5831 5831 5831 5831 5831 5831 5831 5831 5831 5831 5830 5830 5829 5830 5830 5830 5830 5831 5832 5833 5834 5835 5835 5837 5839 5840 5841 5842 5842 5843 5843 5844 5845 5846 5847 5848 5850 5851 5851 5852 5853 5854 5856 5858 5859 5860 5861 5861 5862 5863 5863 5864 5865 5866 5867 5868 5869 5869 5870 5871 5871 5871 5872 5872 5872 5872 5872
5829 5829 5829 5828 5828 5828 5828 5828 5828 5828 5828 5827 5827 5828 5828 5828 5829 5829 5829 5829 5830 5830 5830 5830 5830 5830 5830 5830 5829 5828 5828 5828 5828 5828 5828 5829 5830 5831 5832 5832 5833 5835 5837 5838 5840 5840 5841 5842 5842 5843 5844 5845 5846 5848 5849 5850 5851 5851 5852 5854 5855 5857 5858 5859 5860 5861 5862 5862 5863 5864 5865 5866 5867 5867 5868 5869 5870 5871 5871 5871 5872 5872 5872 5872 5872
5827 5827 5827 5827 5827 5826 5826 5827 5827 5826 5826 5826 5826 5827 5827 5827 5827 5827 5828 5828 5828 5828 5828 5829 5828 5828 5828 5828 5828 5827 5827 5827 5827 5827 5827 5827 5828 5830 5830 5830 5831 5833 5835 5837 5838 5839 5840 5840 5841 5842 5843 5844 5845 5846 5848 5849 5850 5851 5852 5853 5855 5856 5858 5859 5860 5861 5861 5862 5862 5863 5864 5866 5867 5867 5868 5869 5869 5870 5871 5871 5872 5872 5872 5872 5872
5825 5825 5825 5825 5825 5825 5825 5825 5825 5824 5824 5824 5824 5825 5826 5825 5825 5825 5826 5827 5826 5827 5827 5827 5827 5827 5826 5826 5826 5826 5826 5826 5826 5826 5826 5826 5827 5828 5828 5829 5829 5831 5833 5835 5836 5838 5838 5839 5840 5841 5842 5843 5844 5845 5847 5848 5849 5850 5851 5852 5854 5855 5857 5858 5859 5860 5861 5862 5862 5863 5864 5865 5866 5867 5867 5868 5869 5870 5870 5871 5872 5872 5872 5872 5873
5822 5823 5823 5823 5823 5823 5823 5823 5823 5822 5822 5822 5823 5824 5824 5823 5823 5823 5824 5825 5825 5825 5825 5826 5826 5825 5825 5825 5825 5824 5824 5824 5824 5824 5824 5825 5826 5826 5827 5827 5828 5829 5831 5833 5835 5836 5837 5837 5838 5839 5840 5842 5843 5844 5845 5847 5848 5849 5850 5851 5853 5854 5856 5858 5859 5860 5861 5861 5862 5863 5864 5865 5866 5867 5867 5868 5869 5869 5870 5871 5871 5872 5872 5872 5872
5820 5820 5820 5821 5821 5821 5821 5821 5821 5820 5820 5821 5822 5823 5823 5822 5822 5822 5823 5823 5823 5824 5824 5824 5824 5824 5823 5823 5823 5822 5822 5822 5822 5823 5823 5823 5824 5824 5825 5825 5826 5827 5829 5831 5833 5834 5836 5836 5837 5838 5839 5840 5842 5843 5844 5846 5847 5848 5849 5850 5852 5853 5855 5856 5858 5859 5860 5861 5862 5863 5864 5865 5866 5867 5867 5868 5868 5869 5869 5870 5871 5871 5871 5872 5872
5818 5818 5818 5818 5819 5819 5819 5819 5819 5819 5818 5819 5821 5822 5822 5822 5821 5821 5821 5821 5822 5822 5822 5822 5822 5822 5821 5821 5821 5820 5820 5820 5820 5821 5821 5822 5822 5823 5823 5823 5824 5825 5827 5828 5831 5833 5834 5835 5835 5836 5838 5839 5841 5842 5843 5844 5846 5847 5848 5849 5850 5852 5854 5855 5857 5858 5859 5860 5861 5862 5863 5864 5865 5866 5867 5867 5868 5868 5869 5869 5870 5871 5871 5871 5872
5815 5816 5816 5816 5816 5817 5817 5817 5817 5817 5817 5819 5820 5820 5820 5820 5820 5820 5820 5820 5820 5820 5821 5820 5820 5820 5820 5819 5818 5818 5818 5818 5818 5819 5819 5820 5821 5821 5821 5821 5822 5823 5825 5826 5828 5831 5832 5833 5834 5835 5837 5838 5840 5841 5842 5843 5845 5846 5847 5848 5849 5850 5852 5854 5856 5858 5859 5860 5861 5861 5862 5863 5864 5865 5866 5867 5868 5868 5869 5869 5870 5870 5870 5871 5871
5813 5814 5814 5814 5814 5814 5814 5815 5815 5815 5817 5818 5818 5818 5818 5819 5819 5819 5819 5818 5818 5819 5819 5818 5818 5818 5817 5817 5816 5816 5816 5816 5816 5817 5818 5818 5819 5819 5820 5820 5821 5822 5823 5824 5826 5828 5830 5832 5832 5834 5835 5837 5838 5840 5841 5842 5843 5844 5845 5846 5847 5849 5851 5853 5855 5856 5858 5859 5860 5861 5861 5863 5863 5864 5865 5866 5867 5868 5868 5869 5869 5870 5870 5870 5871
5811 5811 5811 5811 5812 5812 5812 5812 5813 5814 5816 5816 5816 5816 5816 5817 5817 5817 5817 5817 5817 5817 5817 5816 5816 5815 5815 5815 5815 5814 5814 5814 5814 5815 5816 5817 5817 5817 5818 5819 5820 5821 5822 5823 5824 5826 5828 5830 5831 5832 5834 5835 5837 5838 5839 5840 5841 5843 5844 5845 5846 5848 5849 5851 5853 5855 5856 5858 5859 5860 5861 5862 5863 5864 5864 5865 5866 5867 5868 5868 5869 5869 5870 5870 5870
5809 5809 5809 5809 5809 5810 5810 5811 5812 5813 5814 5814 5814 5814 5814 5814 5815 5815 5815 5815 5815 5815 5815 5814 5813 5813 5812 5812 5813 5813 5812 5812 5813 5813 5814 5815 5815 5816 5816 5817 5818 5819 5820 5821 5822 5823 5825 5827 5829 5831 5832 5834 5835 5837 5838 5839 5840 5841 5843 5844 5845 5846 5848 5850 5852 5854 5855 5856 5858 5859 5860 5861 5862 5863 5864 5864 5865 5866 5867 5867 5868 5869 5869 5870 5870
5806 5807 5807 5807 5807 5808 5808 5809 5810 5811 5811 5812 5812 5812 5812 5812 5812 5813 5813 5813 5813 5813 5813 5813 5812 5811 5811 5811 5811 5811 5811 5811 5811 5812 5813 5813 5814 5814 5815 5816 5817 5818 5819 5820 5821 5822 5823 5825 5827 5829 5831 5832 5834 5835 5837 5837 5838 5839 5841 5842 5844 5845 5846 5848 5850 5852 5854 5855 5856 5858 5859 5860 5861 5862 5863 5864 5864 5865 5866 5867 5867 5868 5869 5869 5870
5804 5804 5804 5805 5805 5806 5807 5807 5808 5808 5809 5809 5809 5810 5810 5810 5810 5811 5811 5811 5811 5811 5811 5811 5810 5810 5809 5810 5810 5810 5811 5810 5811 5811 5811 5811 5812 5812 5813 5814 5816 5817 5818 5818 5819 5820 5821 5823 5825 5827 5829 5831 5833 5834 5835 5836 5837 5838 5839 5841 5842 5844 5845 5847 5848 5850 5852 5854 5855 5856 5858 5859 5860 5861 5862 5863 5864 5864 5865 5866 5866 5867 5868 5868 5869
5801 5802 5802 5802 5803 5804 5805 5805 5805 5806 5806 5807 5807 5808 5808 5808 5809 5809 5809 5809 5810 5810 5809 5808 5808 5808 5808 5809 5809 5809 5809 5809 5810 5810 5810 5810 5810 5811 5811 5812 5814 5815 5816 5817 5818 5819 5820 5821 5823 5825 5827 5830 5831 5833 5834 5835 5835 5836 5838 5839 5841 5842 5844 5845 5847 5849 5850 5852 5853 5854 5856 5857 5858 5860 5861 5862 5863 5864 5864 5865 5865 5866 5866 5867 5868
5798 5799 5799 5800 5801 5802 5802 5803 5803 5804 5804 5805 5805 5805 5806 5806 5807 5807 5807 5808 5808 5808 5808 5807 5806 5807 5807 5807 5807 5808 5808 5808 5808 5808 5809 5809 5809 5809 5810 5811 5812 5813 5814 5814 5815 5817 5818 5820 5821 5823 5825 5827 5830 5831 5832 5833 5834 5835 5836 5838 5839 5841 5842 5844 5845 5847 5848 5850 5851 5853 5854 5855 5857 5858 5859 5861 5862 5862 5863 5864 5864 5865 5865 5866 5867
5796 5796 5797 5797 5798 5799 5800 5801 5801 5802 5802 5802 5803 5803 5804 5804 5805 5805 5806 5806 5806 5806 5806 5805 5804 5805 5805 5806 5806 5807 5807 5807 5807 5807 5807 5807 5807 5807 5808 5809 5809 5810 5811 5812 5813 5814 5816 5817 5819 5821 5823 5825 5828 5830 5831 5832 5833 5833 5835 5837 5838 5840 5841 5842 5844 5845 5846 5848 5849 5850 5852 5853 5855 5856 5858 5859 5860 5861 5862 5862 5863 5863 5864 5865 5866
5793 5794 5794 5795 5796 5797 5797 5798 5799 5800 5800 5800 5801 5801 5802 5803 5803 5804 5804 5804 5804 5804 5804 5804 5803 5803 5804 5805 5805 5806 5805 5805 5805 5805 5805 5805 5805 5805 5806 5807 5807 5808 5809 5810 5811 5812 5813 5815 5817 5819 5821 5823 5826 5828 5830 5831 5832 5832 5833 5835 5837 5838 5840 5841 5842 5843 5844 5846 5847 5849 5850 5851 5853 5854 5856 5857 5858 5859 5860 5861 5861 5862 5863 5864 5865
5791 5791 5792 5793 5794 5794 5795 5796 5797 5797 5798 5798 5799 5799 5800 5801 5802 5802 5802 5803 5803 5803 5803 5803 5802 5802 5802 5804 5804 5804 5804 5804 5804 5804 5803 5803 5804 5804 5805 5805 5806 5806 5807 5808 5809 5810 5811 5812 5814 5817 5819 5821 5823 5826 5828 5829 5830 5831 5831 5833 5835 5837 5838 5840 5841 5842 5843 5844 5845 5847 5848 5850 5851 5852 5854 5855 5856 5857 5858 5859 5860 5860 5861 5862 5863
5788 5789 5789 5790 5791 5792 5793 5793 5794 5795 5795 5796 5797 5797 5798 5799 5800 5800 5801 5801 5801 5801 5801 5801 5801 5800 5801 5802 5803 5803 5803 5803 5803 5803 5802 5802 5803 5803 5804 5803 5804 5805 5805 5806 5807 5808 5809 5810 5812 5814 5816 5818 5821 5824 5826 5827 5829 5829 5830 5831 5833 5835 5837 5838 5839 5840 5841 5842 5843 5845 5846 5847 5849 5850 5851 5853 5854 5855 5855 5856 5857 5858 5859 5860 5861
5786 5786 5787 5788 5789 5790 5790 5791 5792 5792 5793 5794 5795 5796 5797 5797 5798 5799 5799 5799 5800 5800 5800 5799 5799 5799 5799 5799 5800 5801 5801 5801 5801 5801 5801 5801 5801 5801 5801 5801 5802 5803 5803 5804 5805 5806 5807 5808 5810 5811 5814 5816 5818 5821 5824 5826 5827 5828 5828 5829 5832 5833 5835 5836 5838 5838 5839 5840 5841 5842 5843 5845 5846 5847 5849 5850 5851 5852 5853 5854 5854 5855 5856 5857 5858
5784 5785 5785 5786 5787 5787 5788 5789 5789 5790 5791 5792 5793 5793 5794 5795 5796 5796 5797 5798 5798 5798 5798 5798 5797 5797 5797 5797 5798 5799 5799 5799 5799 5799 5799 5799 5799 5799 5799 5800 5800 5801 5801 5802 5803 5804 5805 5807 5808 5809 5811 5813 5816 5819 5821 5824 5826 5827 5827 5828 5830 5832 5833 5834 5836 5837 5837 5838 5839 5840 5841 5842 5843 5845 5846 5847 5848 5849 5850 5851 5852 5852 5853 5855 5856
5783 5783 5784 5785 5785 5786 5786 5787 5787 5788 5789 5789 5790 5791 5792 5793 5793 5794 5795 5795 5795 5795 5796 5796 5795 5795 5795 5796 5796 5796 5797 5797 5797 5797 5797 5798 5798 5797 5797 5798 5798 5798 5799 5800 5801 5802 5803 5805 5806 5808 5809 5811 5813 5816 5818 5821 5823 5825 5826 5826 5828 5829 5831 5832 5834 5835 5836 5836 5837 5838 5839 5840 5841 5843 5844 5845 5846 5847 5848 5849 5850 5850 5851 5852 5853
5782 5782 5783 5783 5784 5784 5784 5785 5786 5786 5787 5787 5788 5788 5789 5790 5791 5791 5792 5793 5793 5793 5793 5793 5793 5793 5793 5794 5794 5794 5794 5794 5794 5795 5796 5796 5796 5796 5795 5796 5796 5797 5797 5798 5798 5799 5800 5802 5803 5805 5807 5808 5810 5813 5815 5818 5820 5822 5824 5825 5825 5827 5828 5830 5831 5833 5834 5835 5836 5836 5838 5839 5840 5841 5841 5843 5844 5845 5846 5847 5847 5848 5849 5850 5851
5780 5780 5781 5781 5781 5782 5783 5783 5784 5784 5785 5785 5786 5786 5787 5787 5788 5789 5789 5790 5790 5790 5790 5791 5791 5791 5791 5792 5792 5792 5790 5791 5793 5793 5793 5794 5794 5794 5793 5794 5795 5795 5795 5795 5795 5796 5797 5798 5800 5802 5804 5806 5808 5810 5812 5814 5817 5819 5821 5823 5823 5824 5826 5828 5829 5830 5832 5833 5834 5835 5836 5837 5838 5838 5839 5840 5841 5842 5843 5844 5845 5846 5847 5848 5849
5778 5778 5779 5779 5779 5780 5781 5782 5782 5783 5783 5784 5784 5784 5784 5785 5785 5786 5787 5787 5788 5788 5788 5788 5788 5789 5789 5790 5790 5789 5788 5789 5791 5791 5791 5791 5792 5792 5791 5792 5793 5792 5792 5792 5793 5794 5794 5795 5797 5799 5801 5803 5805 5807 5809 5811 5813 5816 5818 5820 5821 5822 5823 5825 5826 5828 5829 5831 5832 5833 5834 5835 5836 5836 5837 5838 5839 5840 5841 5842 5843 5844 5845 5846 5847
5775 5776 5776 5777 5777 5778 5779 5779 5780 5781 5781 5782 5782 5782 5782 5782 5783 5783 5784 5785 5785 5785 5786 5786 5786 5786 5787 5787 5788 5787 5786 5787 5788 5789 5789 5789 5789 5789 5789 5790 5790 5789 5790 5791 5792 5792 5793 5794 5795 5796 5798 5800 5802 5804 5806 5808 5809 5812 5814 5817 5819 5820 5821 5822 5824 5825 5826 5828 5830 5831 5832 5833 5834 5834 5835 5836 5837 5838 5839 5839 5841 5842 5843 5844 5845
5773 5773 5774 5774 5775 5775 5776 5777 5778 5778 5779 5779 5779 5779 5780 5780 5781 5781 5782 5782 5783 5783 5783 5783 5783 5784 5784 5785 5785 5785 5785 5785 5785 5786 5787 5786 5786 5786 5787 5788 5787 5788 5789 5790 5790 5791 5792 5792 5793 5794 5795 5797 5799 5800 5802 5804 5806 5808 5810 5813 5815 5817 5818 5819 5820 5822 5823 5825 5827 5828 5829 5830 5831 5832 5833 5834 5834 5835 5836 5837 5838 5839 5841 5842 5843
5770 5770 5771 5771 5772 5773 5773 5774 5775 5775 5776 5776 5777 5777 5777 5778 5778 5779 5779 5780 5780 5780 5780 5780 5780 5781 5781 5782 5782 5782 5782 5782 5783 5783 5783 5783 5783 5784 5786 5786 5786 5786 5786 5787 5788 5789 5790 5790 5790 5791 5792 5794 5795 5796 5798 5800 5802 5804 5806 5809 5811 5813 5814 5816 5817 5818 5821 5822 5824 5825 5826 5827 5828 5829 5830 5831 5832 5833 5834 5834 5836 5837 5838 5839 5840
5767 5767 5768 5768 5768 5769 5770 5770 5771 5772 5773 5773 5774 5774 5774 5775 5775 5776 5776 5777 5777 5777 5777 5777 5777 5778 5778 5779 5779 5779 5779 5780 5780 5780 5780 5780 5781 5782 5783 5784 5784 5784 5784 5786 5786 5787 5788 5788 5788 5789 5790 5791 5792 5792 5794 5796 5798 5800 5802 5805 5807 5809 5810 5812 5814 5816 5817 5819 5820 5821 5823 5824 5825 5826 5828 5829 5829 5830 5831 5832 5833 5835 5836 5837 5838
5764 5764 5764 5765 5765 5765 5766 5767 5767 5768 5769 5770 5770 5771 5771 5772 5772 5773 5773 5774 5774 5774 5774 5774 5774 5775 5775 5776 5776 5776 5777 5777 5777 5777 5777 5778 5778 5778 5779 5781 5781 5781 5782 5783 5784 5784 5785 5785 5786 5787 5788 5788 5789 5789 5790 5792 5794 5796 5798 5800 5803 5805 5807 5809 5811 5813 5814 5815 5816 5818 5820 5821 5822 5823 5825 5826 5827 5828 5829 5830 5831 5832 5833 5834 5835
5760 5761 5761 5761 5761 5761 5762 5763 5764 5765 5766 5767 5767 5768 5768 5768 5768 5769 5770 5770 5771 5771 5772 5772 5772 5772 5772 5772 5773 5773 5773 5774 5774 5774 5774 5775 5775 5775 5776 5777 5778 5779 5780 5780 5781 5781 5782 5782 5784 5785 5785 5785 5786 5787 5788 5789 5790 5792 5794 5796 5799 5801 5803 5805 5807 5809 5810 5812 5813 5815 5816 5817 5819 5820 5821 5823 5824 5825 5826 5827 5828 5829 5830 5831 5833
5757 5757 5757 5758 5758 5758 5759 5760 5761 5762 5763 5764 5764 5764 5764 5765 5765 5765 5766 5767 5768 5768 5768 5769 5769 5769 5769 5769 5770 5770 5770 5771 5771 5771 5772 5772 5772 5772 5773 5773 5775 5776 5777 5778 5778 5779 5780 5781 5782 5782 5782 5782 5784 5785 5785 5786 5787 5789 5790 5792 5794 5796 5798 5800 5803 5805 5807 5809 5810 5811 5812 5814 5815 5816 5818 5819 5821 5822 5823 5824 5825 5826 5827 5828 5829
5753 5753 5753 5754 5754 5755 5756 5757 5757 5758 5759 5760 5760 5761 5761 5761 5762 5763 5763 5764 5764 5765 5765 5765 5765 5766 5766 5766 5766 5767 5767 5767 5768 5768 5769 5769 5769 5769 5770 5771 5772 5773 5774 5775 5776 5776 5778 5778 5778 5779 5780 5780 5781 5782 5782 5783 5784 5785 5785 5787 5788 5790 5792 5795 5798 5800 5802 5804 5806 5808 5809 5811 5812 5813 5814 5816 5817 5818 5820 5821 5822 5823 5824 5825 5826
5750 5749 5749 5750 5751 5751 5753 5753 5754 5755 5756 5756 5757 5757 5758 5758 5759 5760 5760 5761 5761 5761 5761 5762 5762 5762 5763 5763 5763 5763 5764 5764 5765 5765 5766 5766 5766 5767 5767 5768 5769 5770 5771 5773 5773 5774 5775 5775 5776 5776 5777 5778 5778 5779 5780 5780 5781 5782 5782 5783 5785 5786 5787 5789 5792 5795 5797 5800 5803 5805 5806 5807 5808 5810 5811 5812 5813 5814 5816 5817 5818 5819 5820 5821 5823
5748 5746 5746 5747 5748 5748 5749 5750 5751 5752 5752 5753 5753 5754 5754 5755 5756 5757 5758 5758 5758 5758 5758 5758 5758 5759 5759 5760 5760 5760 5761 5761 5762 5762 5762 5763 5763 5764 5764 5765 5767 5767 5768 5769 5770 5771 5772 5772 5773 5774 5775 5776 5776 5777 5777 5778 5778 5779 5780 5780 5782 5783 5784 5784 5787 5789 5792 5795 5798 5800 5802 5803 5805 5806 5808 5809 5809 5811 5812 5813 5815 5816 5817 5818 5819
5745 5744 5744 5745 5745 5746 5746 5747 5748 5749 5749 5749 5750 5751 5751 5752 5753 5754 5754 5755 5755 5755 5755 5755 5755 5755 5756 5756 5757 5757 5757 5758 5759 5759 5759 5760 5760 5761 5761 5761 5763 5764 5765 5766 5767 5768 5768 5768 5770 5771 5772 5774 5774 5775 5775 5776 5776 5777 5778 5778 5779 5780 5781 5782 5783 5785 5788 5791 5794 5796 5798 5799 5801 5803 5804 5805 5806 5807 5808 5809 5811 5812 5813 5815 5816
5741 5741 5741 5742 5742 5743 5743 5744 5745 5746 5746 5747 5748 5748 5748 5748 5749 5750 5751 5751 5752 5752 5752 5752 5752 5752 5752 5753 5754 5754 5754 5755 5756 5756 5757 5757 5757 5758 5758 5759 5759 5760 5762 5763 5764 5765 5765 5765 5766 5768 5769 5770 5771 5772 5772 5773 5774 5775 5775 5776 5777 5778 5779 5780 5781 5783 5785 5788 5790 5792 5794 5795 5797 5799 5800 5801 5802 5803 5804 5806 5807 5808 5810 5811 5812
5739 5738 5739 5739 5740 5741 5741 5742 5742 5744 5744 5745 5745 5744 5744 5745 5746 5747 5748 5748 5749 5749 5749 5749 5749 5749 5750 5750 5750 5751 5751 5752 5752 5753 5754 5754 5755 5755 5756 5756 5757 5757 5758 5759 5761 5762 5763 5763 5764 5765 5767 5767 5768 5769 5770 5771 5772 5773 5773 5774 5775 5776 5777 5778 5779 5780 5782 5784 5786 5788 5790 5791 5793 5795 5797 5797 5799 5800 5801 5802 5803 5805 5806 5807 5809
5736 5736 5736 5737 5737 5738 5739 5739 5740 5741 5742 5742 5742 5741 5741 5742 5743 5744 5745 5745 5745 5746 5746 5746 5746 5746 5747 5747 5748 5748 5748 5749 5749 5750 5751 5752 5752 5753 5753 5754 5754 5755 5755 5756 5758 5760 5761 5761 5761 5762 5763 5764 5765 5766 5767 5768 5769 5770 5771 5772 5773 5774 5775 5775 5777 5778 5779 5781 5783 5784 5786 5787 5789 5791 5793 5794 5795 5796 5798 5799 5800 5801 5802 5803 5804
5733 5733 5734 5734 5735 5736 5736 5737 5738 5739 5740 5740 5740 5739 5739 5739 5740 5741 5741 5741 5742 5742 5743 5743 5743 5743 5744 5744 5744 5745 5745 5746 5746 5747 5748 5749 5750 5750 5750 5751 5751 5752 5753 5753 5755 5756 5758 5758 5759 5759 5760 5762 5762 5763 5765 5766 5766 5767 5768 5769 5770 5772 5773 5773 5774 5775 5776 5778 5780 5780 5782 5783 5785 5786 5788 5790 5791 5793 5794 5795 5796 5797 5798 5799 5800
5731 5731 5731 5731 5732 5733 5734 5734 5735 5736 5737 5738 5737 5737 5736 5736 5737 5738 5738 5738 5738 5739 5739 5740 5740 5740 5740 5741 5741 5742 5743 5743 5744 5745 5745 5746 5747 5747 5748 5748 5749 5749 5750 5751 5751 5753 5754 5755 5756 5757 5758 5759 5760 5760 5761 5763 5763 5764 5765 5766 5767 5769 5770 5771 5772 5772 5774 5775 5777 5777 5777 5779 5781 5782 5783 5785 5787 5789 5790 5791 5792 5793 5793 5794 5795
5729 5729 5729 5729 5729 5730 5731 5732 5733 5734 5735 5735 5735 5734 5734 5734 5734 5735 5735 5735 5735 5735 5736 5736 5737 5737 5737 5738 5738 5739 5740 5741 5742 5742 5743 5744 5744 5745 5745 5746 5746 5747 5747 5748 5749 5750 5751 5752 5753 5754 5755 5755 5756 5757 5758 5759 5760 5761 5762 5763 5764 5765 5767 5768 5768 5769 5770 5772 5774 5775 5775 5775 5777 5779 5779 5780 5782 5784 5785 5786 5787 5788 5788 5789 5790